DW9572 Weather Reports


time (UTC)temp
F
wind
direction
speed
knots
gust
knots
rain 1hr
in
rain 24hr
in
rain mn
in
humidity
%
barometer
mb
20260507231531 79 200 7.0 12.2 0.00 0.00 0.00 26 1011.5
20260507230026 78 202 3.5 9.6 0.00 0.00 0.00 25 1011.7
20260507224512 79 210 7.8 13.0 0.00 0.00 0.00 25 1011.9
20260507223011 78 204 8.7 13.9 0.00 0.00 0.00 25 1012.1
20260507221645 78 217 9.6 14.8 0.00 0.00 0.00 26 1012.3
20260507220042 78 203 8.7 14.8 0.00 0.00 0.00 27 1012.4
20260507214530 77 211 7.8 15.6 0.00 0.00 0.00 27 1012.6
20260507213024 77 221 7.8 14.8 0.00 0.00 0.00 28 1012.8
20260507211529 77 232 11.3 17.4 0.00 0.00 0.00 27 1013.0
20260507210019 76 259 11.3 14.8 0.00 0.00 0.00 28 1013.1
20260507204518 76 264 9.6 16.5 0.00 0.00 0.00 28 1013.3
20260507203016 76 214 11.3 17.4 0.00 0.00 0.00 30 1013.4
20260507201517 76 215 10.4 18.2 0.00 0.00 0.00 30 1013.5
20260507200012 75 262 11.3 20.0 0.00 0.00 0.00 31 1013.5
20260507194510 75 246 11.3 16.5 0.00 0.00 0.00 31 1013.6
20260507193011 74 200 10.4 20.9 0.00 0.00 0.00 32 1013.8
20260507191510 73 195 10.4 20.0 0.00 0.00 0.00 30 1013.9
20260507190006 73 269 10.4 20.0 0.00 0.00 0.00 28 1014.0
20260507184504 73 252 11.3 17.4 0.00 0.00 0.00 26 1014.1
20260507183002 72 264 13.0 20.9 0.00 0.00 0.00 27 1014.2
20260507181540 72 269 14.8 21.7 0.00 0.00 0.00 28 1014.1
20260507180040 72 204 14.8 20.0 0.00 0.00 0.00 30 1014.1
20260507174540 71 215 12.2 16.5 0.00 0.00 0.00 34 1014.3
20260507173023 70 195 13.9 19.1 0.00 0.00 0.00 35 1014.3
20260507171621 70 214 13.9 18.2 0.00 0.00 0.00 37 1014.3
20260507170058 69 181 6.1 12.2 0.00 0.00 0.00 45 1014.5
20260507164539 68 163 4.3 12.2 0.00 0.00 0.00 43 1014.6
20260507163036 68 143 3.5 7.0 0.00 0.00 0.00 40 1014.8
20260507161519 67 190 4.3 8.7 0.00 0.00 0.00 40 1014.8
20260507160015 66 185 9.6 11.3 0.00 0.00 0.00 44 1014.8
20260507154554 66 188 7.0 10.4 0.00 0.00 0.00 44 1014.8
20260507153051 65 210 7.0 10.4 0.00 0.00 0.00 47 1014.6
20260507151529 64 226 7.8 10.4 0.00 0.00 0.00 48 1014.6
20260507150025 62 210 7.0 11.3 0.00 0.00 0.00 52 1014.6
20260507144505 61 225 9.6 12.2 0.00 0.00 0.00 54 1014.4
20260507143119 59 231 7.8 9.6 0.00 0.00 0.00 57 1014.4
20260507141538 58 269 6.1 7.8 0.00 0.00 0.00 60 1014.4
20260507140044 57 267 7.8 8.7 0.00 0.00 0.00 61 1014.3
20260507134514 56 248 4.3 6.1 0.00 0.00 0.00 64 1014.2
20260507133011 54 284 3.5 6.1 0.00 0.00 0.00 68 1014.2
20260507131617 52 301 0.9 5.2 0.00 0.00 0.00 71 1014.1
20260507130052 53 298 1.7 2.6 0.00 0.00 0.00 70 1013.9
20260507124533 54 314 2.6 6.1 0.00 0.00 0.00 67 1013.8
20260507123038 52 321 3.5 4.3 0.00 0.00 0.00 75 1013.9
20260507121510 52 335 4.3 6.1 0.00 0.00 0.00 73 1013.7
20260507120012 51 328 5.2 8.7 0.00 0.00 0.00 74 1013.7
20260507114549 51 331 3.5 7.8 0.00 0.00 0.00 74 1013.6
20260507113107 51 338 4.3 9.6 0.00 0.00 0.00 75 1013.5
20260507111531 55 126 0.0 2.6 0.00 0.00 0.00 72 1013.7
20260507110025 54 120 0.0 1.7 0.00 0.00 0.00 74 1013.5
20260507104517 53 84 0.9 5.2 0.00 0.00 0.00 75 1013.5
20260507103007 55 64 3.5 6.1 0.00 0.00 0.00 67 1013.2
20260507101507 56 263 4.3 7.0 0.00 0.00 0.00 67 1013.0
20260507100008 56 283 5.2 7.8 0.00 0.00 0.00 68 1013.1
20260507094502 58 316 1.7 4.3 0.00 0.00 0.00 54 1013.0
20260507093001 58 294 1.7 3.5 0.00 0.00 0.00 58 1013.0
20260507091559 60 328 5.2 9.6 0.00 0.00 0.00 56 1013.1
20260507090100 59 301 2.6 4.3 0.00 0.00 0.00 57 1013.3
20260507084602 59 309 0.9 3.5 0.00 0.00 0.00 62 1013.3
20260507083035 61 127 1.7 5.2 0.00 0.00 0.00 58 1013.2
20260507081534 61 242 2.6 8.7 0.00 0.00 0.00 58 1013.0
20260507080017 62 260 3.5 10.4 0.00 0.00 0.00 57 1012.9
20260507074516 61 138 1.7 8.7 0.00 0.00 0.00 52 1013.1
20260507073059 64 276 6.1 11.3 0.00 0.00 0.00 44 1012.6
20260507071555 63 307 6.1 11.3 0.00 0.00 0.00 47 1012.6
20260507070044 62 345 8.7 13.0 0.00 0.00 0.00 48 1012.5
20260507064544 64 360 7.8 13.0 0.00 0.00 0.00 46 1012.6
20260507063017 66 20 4.3 7.0 0.00 0.00 0.00 42 1012.2
20260507061517 67 305 2.6 6.1 0.00 0.00 0.00 40 1011.9
20260507060100 66 277 4.3 7.8 0.00 0.00 0.00 42 1011.8
20260507054600 69 345 6.1 7.8 0.00 0.00 0.00 39 1012.0
20260507053049 67 69 3.5 4.3 0.00 0.00 0.00 40 1012.1
20260507051548 67 345 0.0 4.3 0.00 0.00 0.00 42 1011.8
20260507050104 68 273 0.0 0.0 0.00 0.00 0.00 41 1011.7
20260507044553 70 328 0.9 5.2 0.00 0.00 0.00 39 1011.7
20260507043046 69 77 0.0 4.3 0.00 0.00 0.00 40 1011.5
20260507041547 69 63 0.0 0.0 0.00 0.00 0.00 41 1011.4
20260507040048 71 176 0.0 0.9 0.00 0.00 0.00 39 1011.3
20260507034546 71 262 0.0 4.3 0.00 0.00 0.00 40 1011.0
20260507033029 72 201 0.9 3.5 0.00 0.00 0.00 38 1010.8
20260507031523 73 18 0.9 3.5 0.00 0.00 0.00 37 1010.5
20260507030005 75 19 0.0 5.2 0.00 0.00 0.00 35 1010.4
20260507024502 78 322 7.0 14.8 0.00 0.00 0.00 31 1010.2
20260507023044 78 339 5.2 13.0 0.00 0.00 0.00 32 1010.2
20260507021554 78 320 4.3 11.3 0.00 0.00 0.00 32 1010.2
20260507020026 78 41 9.6 13.9 0.00 0.00 0.00 31 1010.0
20260507014525 79 340 7.0 11.3 0.00 0.00 0.00 30 1010.0
20260507013009 80 353 9.6 15.6 0.00 0.00 0.00 29 1009.8
20260507011514 80 335 7.8 12.2 0.00 0.00 0.00 28 1009.7
20260507010048 81 43 7.0 14.8 0.00 0.00 0.00 27 1009.7
20260507004547 82 20 8.7 14.8 0.00 0.00 0.00 25 1009.7
20260507003029 83 360 7.0 12.2 0.00 0.00 0.00 26 1009.8
20260507001530 83 228 12.2 16.5 0.00 0.00 0.00 36 1009.0
20260507000007 84 214 10.4 18.2 0.00 0.00 0.00 34 1008.8
20260506234507 85 245 15.6 22.6 0.00 0.00 0.00 32 1008.7
20260506233050 85 252 17.4 23.5 0.00 0.00 0.00 33 1008.7